Location: Athabasca
(54.7194°N, 113.2858°W)
Time: 08:43:21
(UTC+00:00)

BEESAT - Visible Passes

Search period start: 02 December 2023 00:00
Search period end: 12 December 2023 00:00
Orbit: 696 x 702 km, 98.5° (Epoch: 01 December)

Date Brightness Start Highest point End Pass type
(mag) Time Alt. Az. Time Alt. Az. Time Alt. Az.
02 Dec ? 14:12:27 10° E 14:15:12 15° NE 14:17:56 10° NNE visible
03 Dec ? 14:52:27 10° ESE 14:56:27 28° ENE 15:00:28 10° N visible
04 Dec ? 13:59:13 10° ENE 14:01:14 13° NE 14:03:14 10° NNE visible
05 Dec ? 14:38:44 10° ESE 14:42:23 22° NE 14:46:03 10° N visible
06 Dec ? 13:46:39 10° NE 13:47:15 10° NE 13:47:50 10° NE visible
07 Dec ? 14:25:07 10° E 14:28:20 18° NE 14:31:33 10° N visible
09 Dec ? 14:11:39 10° E 14:14:18 15° NE 14:16:57 10° NNE visible
10 Dec ? 14:51:33 10° ESE 14:55:30 27° ENE 14:59:28 10° N visible
11 Dec ? 13:58:24 10° ENE 14:00:15 12° NE 14:02:07 10° NNE visible
